星链-36262(STARLINK-36262)

导读

STARLINK-36262是美国于2025年12月17日发射的星链卫星,隶属于SpaceX公司打造的星链星座系统。星链项目旨在构建全球卫星互联网星座,为全球偏远地区、海洋等网络覆盖薄弱区域提供高速互联网接入服务。该卫星入轨后,将与其他星链卫星协同组网,进一步完善星链星座的全球覆盖能力与服务性能。

Basic Information
目录编号:
67201
目录名称:
STARLINK-36262
国际标识:
2025-304K
轨道中心:
EARTH
卫星名称:
星链-36262
卫星全名:
星链-36262(STARLINK-36262)
卫星状态:
在轨 (已飞行262 天)
发射日期:
2025-12-17 UTC
国别 :
美国 (US)
星等 :
--
Orbit Information
数据来源 国际轨道数据 AOE轨道数据
星历时间 2026-09-05T07:00:53+0800
17小时前
查看轨道信息
2026-08-30T02:00:00+0800
6天前
查看轨道信息
半长轴 6950.192km 6950.179km
偏心率 0.0002765 0.0002643
轨道倾角 70.001° 70.001°
近地点辐角 264.952° 271.706°
升交点赤经 82.612° 98.266°
平近点角 95.133° 87.035°
近地点 570.133km 570.205km
远地点 573.977km 573.879km
周期 96.107分钟 96.107分钟
每日圈数 14.983304 14.983345
Detailed Information
固有亮度:
5
最大亮度:
2.5
卫星平台:
Starlink V1.0
覆盖范围:
全球
运营商:
太空探索技术公司
运营商所在国:
美国
制造商(研发单位):
太空探索技术公司
制造商所在国:
美国
使用方式:
暂无
Satellite Introduction
Starlink 计划是 SpaceX 推出的全球卫星互联网项目,通过发射低轨道卫星,为全球尤其是偏远地区提供高速、低延迟的互联网服务。自 2019 年起,Starlink 已部署数千颗卫星,旨在缩小全球数字鸿沟,推动互联网普及。该项目还为军事、航空等行业提供通信支持,带来广泛经济效益。
2D Orbit Map
3D Orbit Map
Orbit Altitude Analysis Chart
Orbit Inclination Analysis Chart
Orbit Comprehensive Analysis Chart
View Comprehensive Chart